Hourly Weather Suwałki

Today, 5 July, Sunday

Time Temperature Precipitation Wind Pressure Humidity
00:00 +17°C° 0 mm 4 mps 744 mmHg 88%
01:00 +17°C° 0 mm 4 mps 744 mmHg 86%
02:00 +17°C° 0 mm 4 mps 744 mmHg 85%
03:00 +17°C° 0 mm 4 mps 744 mmHg 85%
04:00 +17°C° 0 mm 4 mps 743 mmHg 85%
05:00 +17°C° 0 mm 4 mps 743 mmHg 86%
06:00 +17°C° 0.1 mm 4 mps 743 mmHg 86%
07:00 +18°C° 0.1 mm 4 mps 743 mmHg 87%
08:00 +18°C° 0.1 mm 4 mps 743 mmHg 87%
09:00 +19°C° 0 mm 4 mps 743 mmHg 83%
10:00 +21°C° 0 mm 5 mps 743 mmHg 79%
11:00 +22°C° 0 mm 5 mps 743 mmHg 74%
12:00 +23°C° 0.4 mm 5 mps 743 mmHg 76%
13:00 +23°C° 0.4 mm 5 mps 743 mmHg 77%
14:00 +23°C° 0.4 mm 6 mps 742 mmHg 79%
15:00 +23°C° 0.4 mm 6 mps 742 mmHg 79%
16:00 +23°C° 0.4 mm 5 mps 742 mmHg 80%
17:00 +23°C° 0.4 mm 5 mps 742 mmHg 80%
18:00 +22°C° 0.1 mm 5 mps 742 mmHg 83%
19:00 +22°C° 0.1 mm 4 mps 742 mmHg 85%
20:00 +21°C° 0.1 mm 4 mps 742 mmHg 87%
21:00 +20°C° 0 mm 4 mps 742 mmHg 89%
22:00 +20°C° 0 mm 4 mps 742 mmHg 90%
23:00 +19°C° 0 mm 4 mps 742 mmHg 91%

Tomorrow, 6 July, Monday

Time Temperature Precipitation Wind Pressure Humidity
00:00 +19°C° 0 mm 4 mps 741 mmHg 92%
01:00 +19°C° 0 mm 4 mps 741 mmHg 92%
02:00 +20°C° 0 mm 4 mps 741 mmHg 92%
03:00 +19°C° 0 mm 4 mps 741 mmHg 93%
04:00 +19°C° 0 mm 4 mps 741 mmHg 94%
05:00 +18°C° 0 mm 3 mps 741 mmHg 95%
06:00 +19°C° 0 mm 3 mps 741 mmHg 94%
07:00 +19°C° 0 mm 3 mps 741 mmHg 92%
08:00 +19°C° 0 mm 3 mps 741 mmHg 91%
09:00 +19°C° 0.1 mm 3 mps 741 mmHg 90%
10:00 +19°C° 0.1 mm 3 mps 741 mmHg 89%
11:00 +19°C° 0.1 mm 3 mps 741 mmHg 89%
12:00 +19°C° 0 mm 4 mps 741 mmHg 85%
13:00 +20°C° 0 mm 4 mps 741 mmHg 82%
14:00 +21°C° 0 mm 4 mps 740 mmHg 78%
15:00 +21°C° 0.2 mm 4 mps 740 mmHg 78%
16:00 +21°C° 0.2 mm 4 mps 741 mmHg 78%
17:00 +21°C° 0.2 mm 4 mps 741 mmHg 78%
18:00 +20°C° 0.1 mm 3 mps 741 mmHg 81%
19:00 +19°C° 0.1 mm 3 mps 741 mmHg 84%
20:00 +17°C° 0.1 mm 3 mps 741 mmHg 88%
21:00 +16°C° 0 mm 2 mps 741 mmHg 89%
22:00 +15°C° 0 mm 1 mps 741 mmHg 90%
23:00 +13°C° 0 mm 1 mps 742 mmHg 91%

Day after tomorrow, 7 July, Tuesday

Time Temperature Precipitation Wind Pressure Humidity
00:00 +13°C° 0 mm 1 mps 742 mmHg 92%
01:00 +13°C° 0 mm 2 mps 742 mmHg 92%
02:00 +12°C° 0 mm 2 mps 742 mmHg 92%
03:00 +12°C° 0 mm 2 mps 743 mmHg 92%
04:00 +12°C° 0 mm 2 mps 743 mmHg 92%
05:00 +10°C° 0 mm 2 mps 743 mmHg 92%
06:00 +12°C° 0 mm 3 mps 743 mmHg 88%
07:00 +13°C° 0 mm 3 mps 743 mmHg 83%
08:00 +14°C° 0 mm 4 mps 744 mmHg 79%
09:00 +15°C° 0 mm 4 mps 744 mmHg 75%
10:00 +17°C° 0 mm 4 mps 744 mmHg 72%
11:00 +18°C° 0 mm 4 mps 744 mmHg 68%
12:00 +18°C° 0.1 mm 4 mps 744 mmHg 67%
13:00 +19°C° 0.1 mm 5 mps 744 mmHg 67%
14:00 +19°C° 0.1 mm 5 mps 744 mmHg 66%
15:00 +17°C° 0.1 mm 5 mps 744 mmHg 66%
16:00 +17°C° 0.1 mm 5 mps 745 mmHg 66%
17:00 +17°C° 0.1 mm 5 mps 745 mmHg 66%
18:00 +17°C° 0 mm 4 mps 745 mmHg 70%
19:00 +16°C° 0 mm 3 mps 745 mmHg 75%
20:00 +14°C° 0 mm 3 mps 745 mmHg 79%
21:00 +12°C° 0 mm 3 mps 745 mmHg 83%
22:00 +12°C° 0 mm 2 mps 745 mmHg 87%
23:00 +10°C° 0 mm 2 mps 746 mmHg 92%

8 July, Wednesday

Time Temperature Precipitation Wind Pressure Humidity
00:00 +9°C° 0 mm 2 mps 746 mmHg 92%
01:00 +9°C° 0 mm 2 mps 746 mmHg 93%
02:00 +9°C° 0 mm 3 mps 746 mmHg 94%
03:00 +9°C° 0 mm 3 mps 746 mmHg 94%
04:00 +8°C° 0 mm 2 mps 746 mmHg 93%
05:00 +8°C° 0 mm 2 mps 746 mmHg 93%
06:00 +10°C° 0 mm 3 mps 746 mmHg 87%
07:00 +12°C° 0 mm 3 mps 746 mmHg 82%
08:00 +14°C° 0 mm 4 mps 746 mmHg 76%
09:00 +15°C° 0 mm 4 mps 746 mmHg 72%
10:00 +17°C° 0 mm 4 mps 746 mmHg 68%
11:00 +17°C° 0 mm 5 mps 746 mmHg 64%
12:00 +17°C° 0.2 mm 5 mps 746 mmHg 68%
13:00 +16°C° 0.2 mm 5 mps 746 mmHg 71%
14:00 +16°C° 0.2 mm 5 mps 745 mmHg 75%
15:00 +15°C° 0.1 mm 5 mps 745 mmHg 76%
16:00 +15°C° 0.1 mm 4 mps 745 mmHg 76%
17:00 +15°C° 0.1 mm 4 mps 745 mmHg 77%
18:00 +16°C° 0 mm 3 mps 745 mmHg 80%
19:00 +14°C° 0 mm 3 mps 745 mmHg 83%
20:00 +15°C° 0 mm 2 mps 745 mmHg 86%
21:00 +14°C° 0 mm 2 mps 746 mmHg 89%
22:00 +13°C° 0 mm 2 mps 746 mmHg 91%
23:00 +10°C° 0 mm 2 mps 746 mmHg 94%

9 July, Thursday

Time Temperature Precipitation Wind Pressure Humidity
00:00 +10°C° 0 mm 2 mps 746 mmHg 95%
01:00 +10°C° 0 mm 2 mps 746 mmHg 95%
02:00 +9°C° 0 mm 2 mps 746 mmHg 95%
03:00 +9°C° 0 mm 2 mps 747 mmHg 95%
04:00 +9°C° 0 mm 2 mps 747 mmHg 96%
05:00 +9°C° 0 mm 2 mps 747 mmHg 96%
06:00 +12°C° 0 mm 2 mps 747 mmHg 90%
07:00 +13°C° 0 mm 2 mps 747 mmHg 85%
08:00 +14°C° 0 mm 3 mps 748 mmHg 79%
09:00 +16°C° 0 mm 3 mps 748 mmHg 74%
10:00 +17°C° 0 mm 3 mps 748 mmHg 68%
11:00 +18°C° 0 mm 4 mps 748 mmHg 62%
12:00 +19°C° 0.1 mm 4 mps 748 mmHg 62%
13:00 +19°C° 0.1 mm 4 mps 748 mmHg 61%
14:00 +20°C° 0.1 mm 4 mps 748 mmHg 60%
15:00 +20°C° 0.1 mm 3 mps 748 mmHg 61%
16:00 +20°C° 0.1 mm 3 mps 748 mmHg 62%
17:00 +20°C° 0.1 mm 3 mps 748 mmHg 63%
18:00 +19°C° 0 mm 2 mps 748 mmHg 69%
19:00 +17°C° 0 mm 2 mps 748 mmHg 75%
20:00 +16°C° 0 mm 1 mps 748 mmHg 81%
21:00 +15°C° 0 mm 1 mps 748 mmHg 84%
22:00 +14°C° 0 mm 1 mps 748 mmHg 86%
23:00 +13°C° 0 mm 1 mps 748 mmHg 89%

10 July, Friday

Time Temperature Precipitation Wind Pressure Humidity
00:00 +12°C° 0 mm 1 mps 748 mmHg 90%
01:00 +12°C° 0 mm 2 mps 748 mmHg 91%
02:00 +12°C° 0 mm 2 mps 748 mmHg 92%
03:00 +12°C° 0 mm 2 mps 748 mmHg 93%
04:00 +12°C° 0 mm 2 mps 748 mmHg 93%
05:00 +12°C° 0 mm 2 mps 747 mmHg 93%
06:00 +13°C° 0 mm 3 mps 747 mmHg 91%
07:00 +14°C° 0 mm 3 mps 747 mmHg 88%
08:00 +17°C° 0 mm 3 mps 747 mmHg 85%
09:00 +18°C° 0.4 mm 4 mps 747 mmHg 82%
10:00 +19°C° 0.4 mm 4 mps 746 mmHg 80%
11:00 +21°C° 0.4 mm 5 mps 746 mmHg 77%
12:00 +21°C° 0.6 mm 5 mps 746 mmHg 79%
13:00 +20°C° 0.6 mm 5 mps 745 mmHg 81%
14:00 +20°C° 0.6 mm 5 mps 745 mmHg 83%
15:00 +20°C° 0.2 mm 4 mps 744 mmHg 83%
16:00 +21°C° 0.2 mm 4 mps 744 mmHg 83%
17:00 +21°C° 0.2 mm 3 mps 744 mmHg 82%
18:00 +20°C° 0.1 mm 3 mps 744 mmHg 84%
19:00 +20°C° 0.1 mm 3 mps 743 mmHg 86%
20:00 +20°C° 0.1 mm 3 mps 743 mmHg 88%
21:00 +19°C° 0 mm 3 mps 742 mmHg 90%
22:00 +19°C° 0 mm 4 mps 742 mmHg 91%
23:00 +18°C° 0 mm 4 mps 742 mmHg 93%
Show more